Portada
METAR-TAF:

METAR-TAF

Aeroports :

Groote Eylandt, Austràlia

latitud: 13-58-30S, longitud: 136-27-36E, altitud: 16 m

Observació

L'informe es va fer fa 1 hora i 10 minuts, a les 04:00 UTC
Vent 5 kt del Oest/Sud-Oest
Temperatura 28°C
Humitat 84%
Pressió 1005 hPa
Visibilitat 10 km o més
Núvols disperses a una alçada de 1200 ft
Núvols disperses a una alçada de 3200 ft

METAR: YGTE 200400Z AUTO 25005KT 9999 // SCT012 SCT032 28/25 Q1005

Hora: 14:40 (05:10 UTC)


TAF: manca

Observacions i pronòstics meteorològics de més de 4000 aeroports (METAR i TAF).

Les estacions disponibles són els punts grocs i vermells al mapa.

Posi el ratolí al punt desitjat per veure el nom de l'estació.

Feu clic per veure les observacions i els pronòstics meteorològics.

Per canviar el mapa: feu clic els botons verds amb una creu de color negre per apropar; al botó verd amb un guió per allunyar la imatge; o en les fletxes verdes per a mapes adjacents.


METAR-TAF: